Wind_Speed
11 11 11 11 11 11 11 10 9 8 8 9 9 9 10 11 11 10 10 11 13 13 13 13 13 12 12 11 11 10 10 10 10 10 11 12 12 12 12 12 12 12 11 11
12 11 10 11 12 12 12 11 10 10 9 10 11 12 11 12 11 10 9 10 12 13 13 13 12 12 11 10 10 9 10 10 10 11 11 13 12 12 12 12 13 13 12 11
12 11 12 13 12 12 11 10 10 11 11 12 13 13 12 12 13 11 11 11 12 13 13 14 12 11 11 10 10 10 10 10 11 11 11 11 11 12 13 13 14 13 12 11
14 13 14 14 12 12 11 10 11 11 12 12 13 13 12 13 14 12 12 13 13 13 14 14 12 11 10 10 10 10 10 11 11 11 11 11 12 12 13 13 13 13 13 12
14 14 14 14 12 12 11 11 13 13 14 14 14 16 15 14 14 14 16 15 14 14 14 14 12 11 11 10 10 11 11 11 11 11 11 11 11 12 12 12 12 13 12 12
15 15 15 14 13 13 12 13 14 15 16 17 15 17 17 16 15 15 16 15 15 14 13 13 12 12 11 10 11 10 11 12 12 11 12 12 12 12 12 12 12 12 12 11
15 15 15 15 15 15 15 15 17 17 17 16 16 17 18 17 16 16 15 14 15 15 14 12 11 11 10 11 11 10 11 11 12 11 12 12 12 12 13 13 12 12 11 11
16 16 16 16 17 17 17 17 18 19 18 16 16 18 18 16 16 16 16 15 14 14 14 13 11 10 11 10 11 11 11 11 12 11 12 12 12 13 13 13 12 11 11 11
16 16 16 16 18 19 20 20 19 20 19 19 18 19 18 16 15 16 14 15 14 14 13 12 12 11 12 12 11 11 11 12 12 11 11 11 12 11 11 12 11 11 12 12
17 17 16 16 17 19 21 20 21 21 20 19 19 18 17 15 16 16 15 15 14 13 15 13 13 12 12 12 12 12 13 13 13 13 13 12 12 12 11 12 12 12 13 13
19 18 17 18 19 18 20 22 22 21 22 21 21 20 19 18 16 16 16 15 14 15 15 15 14 13 13 13 13 14 14 14 14 14 14 14 13 14 14 14 14 13 13 14
21 20 18 18 18 18 19 20 21 22 22 22 22 21 19 19 17 17 17 17 16 16 16 16 16 16 16 16 15 14 15 15 16 17 17 17 17 17 16 16 16 16 16 16
22 22 21 19 19 19 20 21 20 21 22 21 20 20 19 19 18 18 19 18 18 17 18 18 18 18 18 17 17 16 16 17 17 18 19 19 19 19 18 18 17 17 17 17
23 23 23 22 21 21 22 21 21 21 22 22 21 21 20 20 20 19 20 20 21 20 19 19 20 19 19 19 19 18 18 18 19 19 20 20 20 20 20 19 18 19 19 18
24 24 24 23 23 24 24 23 23 23 24 24 23 23 22 22 23 21 20 20 21 20 20 20 21 20 21 21 20 20 20 20 20 20 20 20 20 20 19 19 19 20 20 20
27 26 25 24 25 26 26 25 25 27 26 26 25 25 24 24 25 24 22 22 22 22 21 20 21 21 21 21 21 21 20 20 21 21 21 21 20 20 20 20 20 21 22 21
28 29 29 28 27 29 29 27 27 28 28 28 27 26 26 25 25 25 24 24 24 23 23 22 21 22 22 22 21 21 22 22 21 21 21 21 21 21 21 21 21 21 21 21
30 31 31 31 30 32 30 29 29 29 28 28 29 28 27 27 26 26 26 25 23 23 24 24 23 23 23 23 23 23 24 24 23 22 23 23 23 22 21 21 22 23 23 21
31 31 32 32 32 32 31 30 30 30 30 29 28 28 27 27 26 26 25 24 25 25 25 24 24 24 24 24 25 24 24 24 23 22 22 23 23 23 23 23 23 24 24 24
31 32 32 32 32 32 30 30 31 30 30 28 28 28 28 27 26 27 27 25 26 26 26 25 25 24 24 24 24 23 23 24 23 22 22 23 23 23 24 24 24 24 25 25
31 31 32 32 32 32 32 31 31 32 31 29 29 29 29 29 29 28 28 27 27 27 27 25 25 24 24 24 23 23 22 23 23 23 23 23 23 24 24 24 24 25 25 26
29 30 30 31 31 31 32 32 32 31 31 31 31 30 30 30 30 29 29 29 27 26 25 25 25 25 25 24 24 23 24 25 25 25 24 24 24 24 24 24 24 25 25 26
28 29 29 30 30 31 31 31 31 30 30 30 31 30 30 32 31 30 29 29 29 27 27 26 26 26 25 25 25 25 25 26 26 26 25 25 25 24 25 25 25 25 24 24
28 27 29 30 30 29 29 29 29 29 29 29 30 30 30 30 30 30 31 29 28 28 27 27 27 27 27 26 26 26 26 26 26 26 25 25 25 25 25 25 25 25 25 24
27 27 27 29 30 30 28 28 29 29 28 27 27 29 29 29 30 30 30 29 28 27 27 27 28 29 28 28 27 27 27 27 26 26 25 25 26 26 26 26 25 25 25 25
25 26 27 27 28 30 30 28 29 29 30 29 28 28 27 27 27 27 28 29 28 28 27 28 28 28 28 28 27 27 26 26 26 26 26 26 26 26 25 25 25 25 25 25
Wind_Direction
224 224 224 228 231 233 233 240 248 246 255 266 276 280 284 297 299 307 306 304 304 301 301 302 300 301 302 301 296 286 284 283 281 276 274 272 271 265 262 267 269 266 265 267
227 226 223 226 227 232 236 245 256 254 255 258 263 269 275 282 287 295 294 291 296 296 298 305 305 303 303 300 292 285 284 281 279 276 273 268 267 263 262 266 269 265 262 259
228 224 222 228 232 237 240 251 257 256 252 258 261 265 270 278 281 283 287 289 294 297 300 301 298 296 298 295 290 287 283 281 279 277 274 271 266 265 261 263 263 260 257 257
231 231 230 233 230 238 241 242 250 251 252 259 264 264 267 270 274 274 280 284 289 291 294 295 294 291 294 293 288 285 283 281 280 278 273 269 265 263 260 259 261 260 256 254
233 234 236 236 230 233 239 243 249 251 252 258 260 264 270 271 273 276 282 284 282 283 286 286 286 285 286 286 287 282 279 279 279 276 273 271 267 259 253 257 261 259 256 253
236 234 234 231 232 234 237 242 247 250 253 256 261 265 265 274 277 276 278 279 282 281 281 280 284 284 283 286 286 281 277 276 278 272 269 269 265 258 254 257 258 257 256 255
238 236 236 235 235 236 237 242 248 251 254 260 263 267 272 277 274 272 269 273 278 283 282 282 279 279 281 283 282 281 277 279 278 273 268 266 264 262 256 255 256 256 256 251
241 236 238 240 240 241 243 245 250 256 260 263 268 271 276 277 273 273 273 275 277 282 283 280 277 277 278 280 281 281 278 279 281 276 272 270 269 268 262 257 252 252 251 248
243 239 239 243 243 243 245 250 254 257 261 264 267 270 273 275 278 283 276 277 277 279 281 274 276 280 277 276 280 282 281 278 278 277 273 273 270 268 264 258 252 249 245 245
244 244 243 242 242 243 246 250 254 256 259 264 265 268 271 274 283 281 280 277 280 277 276 274 277 283 280 277 277 281 279 276 276 277 270 269 267 266 262 256 253 246 244 244
247 248 242 243 244 245 248 247 250 253 259 263 266 270 273 278 282 286 286 276 278 278 273 275 282 286 283 280 280 282 280 276 275 277 274 272 269 268 264 259 256 254 248 245
249 250 247 246 246 249 251 251 252 254 260 263 265 269 274 279 284 290 290 275 277 276 272 276 281 281 282 279 279 280 282 278 275 276 276 273 270 266 263 261 258 256 252 247
250 250 250 247 244 247 251 250 254 261 263 263 267 270 270 274 280 285 285 283 279 277 275 275 274 276 277 277 276 277 279 278 278 276 274 271 268 264 260 259 257 255 253 249
253 250 251 251 251 253 255 252 254 260 262 263 267 272 271 271 274 278 279 280 280 277 273 272 271 273 274 274 274 274 277 277 277 277 275 271 266 262 258 256 256 255 254 250
256 254 254 255 256 257 257 256 257 260 262 264 267 270 270 269 271 275 275 277 276 274 273 272 272 273 275 276 276 274 276 276 275 274 274 272 268 265 261 259 257 255 254 253
256 257 257 257 257 258 258 257 257 259 262 264 266 266 269 270 270 276 277 273 271 270 269 270 272 274 277 279 279 275 274 276 276 273 272 272 269 266 264 261 259 256 255 254
256 256 256 257 257 258 256 257 258 260 262 262 264 266 268 270 273 274 274 273 269 269 270 271 273 275 278 279 278 276 275 277 275 271 269 268 267 265 265 262 258 257 256 254
255 256 256 256 257 257 258 258 259 261 262 262 265 267 267 268 270 273 274 271 268 270 272 272 273 275 276 277 276 276 279 278 276 271 268 267 265 264 263 262 258 256 256 256
254 255 255 254 255 257 257 257 259 262 261 262 264 266 266 268 268 270 271 270 272 273 274 273 275 277 277 276 275 274 276 275 274 270 268 265 263 262 263 263 260 258 258 257
254 254 255 255 256 256 256 258 260 262 262 263 265 267 266 267 269 270 272 273 271 272 272 272 273 275 276 276 275 274 273 272 272 271 268 265 263 261 262 262 261 259 259 257
256 255 255 256 257 258 258 258 259 261 263 265 267 268 269 269 272 272 273 272 270 271 270 270 273 273 274 275 274 272 271 270 270 269 268 267 265 263 261 261 261 261 260 258
255 255 256 255 257 258 258 259 260 261 264 265 266 268 268 268 269 272 273 272 271 270 270 270 272 272 272 272 273 271 269 268 268 267 266 267 265 263 262 261 262 261 262 260
253 254 254 256 256 258 259 260 261 261 263 264 264 265 266 267 268 270 272 273 271 270 270 270 270 270 270 271 272 272 269 267 267 267 267 265 264 264 263 263 262 262 260 259
255 257 255 255 257 257 256 258 260 260 262 262 262 264 265 267 269 271 270 271 270 269 269 270 269 269 270 271 272 271 268 267 266 265 266 265 264 264 265 264 262 258 257 256
258 257 257 257 258 259 259 260 261 261 261 262 264 267 268 267 269 272 272 272 270 270 271 270 269 269 268 269 270 269 268 266 265 264 264 263 264 265 265 264 262 258 257 257
261 260 259 259 259 261 260 260 260 260 259 261 263 266 267 268 268 269 272 273 272 270 269 269 268 268 269 268 267 268 268 265 264 262 262 264 264 264 264 263 262 259 258 258
Height
5856 5859 5860 5861 5863 5864 5864 5864 5864 5866 5866 5866 5865 5865 5864 5863 5862 5862 5862 5861 5861 5860 5860 5859 5858 5856 5856 5855 5855 5855 5855 5855 5855 5855 5855 5855 5854 5855 5855 5855 5855 5855 5855 5855
5854 5856 5858 5858 5859 5860 5860 5861 5861 5862 5863 5862 5862 5862 5862 5861 5860 5860 5860 5860 5859 5858 5857 5856 5855 5853 5853 5853 5852 5852 5853 5852 5852 5852 5852 5851 5851 5851 5851 5852 5852 5852 5852 5852
5851 5854 5854 5855 5856 5856 5857 5858 5859 5859 5860 5859 5859 5859 5859 5858 5858 5858 5858 5857 5856 5855 5855 5854 5853 5852 5851 5851 5850 5850 5850 5849 5849 5848 5848 5848 5847 5848 5848 5848 5848 5848 5848 5848
5847 5849 5850 5851 5852 5853 5854 5855 5856 5856 5857 5856 5856 5855 5856 5856 5855 5855 5854 5854 5853 5853 5852 5851 5850 5849 5849 5848 5847 5847 5846 5846 5846 5845 5845 5845 5844 5844 5844 5845 5845 5845 5845 5845
5843 5845 5846 5847 5849 5850 5851 5852 5852 5853 5852 5852 5852 5852 5853 5852 5852 5851 5851 5850 5850 5850 5849 5847 5846 5846 5845 5845 5844 5844 5843 5842 5842 5842 5841 5841 5841 5841 5841 5841 5841 5841 5841 5841
5840 5841 5842 5844 5846 5846 5847 5848 5848 5848 5848 5848 5848 5848 5848 5848 5847 5847 5847 5847 5846 5846 5844 5843 5843 5842 5842 5842 5841 5840 5839 5839 5838 5838 5838 5838 5837 5837 5837 5837 5837 5837 5837 5838
5835 5837 5838 5839 5841 5842 5842 5843 5844 5843 5843 5844 5844 5844 5844 5844 5843 5842 5842 5842 5842 5841 5840 5839 5839 5839 5839 5838 5838 5837 5836 5835 5835 5834 5834 5834 5833 5833 5833 5833 5834 5834 5834 5834
5831 5833 5834 5835 5836 5837 5838 5839 5840 5840 5840 5840 5840 5839 5840 5839 5839 5838 5837 5837 5837 5837 5836 5835 5835 5836 5835 5835 5834 5833 5832 5832 5831 5831 5830 5830 5830 5829 5829 5830 5830 5830 5831 5831
5826 5829 5830 5831 5832 5833 5834 5834 5836 5836 5836 5835 5835 5835 5835 5834 5834 5833 5832 5832 5832 5832 5831 5831 5831 5831 5831 5830 5830 5829 5829 5828 5827 5827 5826 5826 5826 5825 5825 5826 5826 5827 5827 5828
5822 5824 5825 5826 5828 5828 5830 5830 5831 5831 5831 5830 5830 5830 5830 5829 5829 5828 5827 5827 5827 5827 5827 5827 5827 5827 5827 5826 5826 5825 5825 5824 5824 5823 5822 5823 5822 5822 5822 5822 5823 5823 5824 5825
5818 5819 5820 5821 5821 5823 5824 5825 5825 5825 5825 5825 5825 5827 5825 5825 5824 5823 5823 5823 5823 5822 5822 5822 5823 5823 5823 5822 5821 5820 5820 5820 5820 5819 5819 5818 5818 5818 5818 5819 5819 5819 5820 5821
5813 5814 5815 5816 5817 5817 5818 5818 5819 5820 5820 5820 5820 5823 5820 5819 5819 5819 5818 5818 5818 5817 5817 5817 5818 5818 5818 5818 5817 5816 5815 5815 5815 5815 5814 5814 5814 5814 5814 5815 5815 5815 5816 5817
5807 5808 5809 5810 5813 5813 5812 5812 5813 5814 5814 5814 5814 5817 5815 5814 5814 5814 5813 5812 5812 5812 5812 5812 5813 5813 5813 5813 5813 5811 5811 5810 5810 5810 5809 5809 5809 5809 5809 5810 5810 5811 5811 5812
5800 5801 5803 5805 5805 5806 5806 5807 5808 5808 5808 5808 5809 5810 5810 5809 5809 5809 5808 5807 5807 5807 5807 5807 5807 5807 5808 5807 5807 5806 5805 5804 5804 5804 5803 5803 5803 5803 5804 5804 5805 5806 5806 5807
5794 5795 5796 5798 5799 5799 5800 5801 5802 5802 5802 5802 5803 5804 5804 5804 5803 5803 5802 5802 5801 5801 5801 5801 5801 5801 5801 5800 5800 5800 5799 5798 5798 5797 5797 5797 5797 5797 5798 5798 5799 5800 5801 5802
5787 5788 5789 5791 5792 5792 5793 5794 5795 5795 5795 5796 5797 5798 5797 5797 5796 5796 5796 5795 5795 5795 5795 5794 5794 5794 5795 5794 5793 5793 5792 5792 5791 5791 5791 5791 5791 5791 5791 5792 5793 5794 5795 5796
5779 5780 5781 5783 5784 5784 5785 5787 5787 5788 5788 5789 5789 5791 5790 5790 5790 5790 5789 5789 5788 5788 5788 5788 5787 5787 5788 5787 5787 5786 5785 5784 5784 5783 5783 5783 5784 5784 5785 5786 5787 5788 5789 5789
5771 5772 5772 5774 5776 5775 5780 5779 5779 5779 5780 5780 5781 5781 5782 5782 5782 5782 5782 5781 5781 5781 5781 5780 5779 5780 5780 5779 5779 5779 5778 5776 5776 5776 5776 5776 5777 5777 5778 5779 5780 5781 5782 5783
5762 5763 5763 5764 5765 5766 5769 5770 5771 5771 5771 5772 5773 5774 5774 5774 5774 5774 5774 5774 5774 5773 5773 5772 5772 5772 5772 5772 5771 5771 5770 5769 5769 5769 5769 5769 5769 5770 5771 5772 5773 5774 5775 5776
5752 5753 5754 5754 5755 5757 5761 5762 5762 5763 5763 5764 5765 5765 5765 5765 5766 5767 5767 5766 5766 5765 5764 5764 5764 5764 5764 5764 5763 5762 5762 5762 5762 5761 5761 5761 5762 5763 5764 5764 5765 5766 5768 5769
5742 5744 5745 5745 5746 5748 5751 5752 5753 5755 5756 5756 5756 5757 5757 5757 5758 5759 5759 5758 5757 5757 5756 5755 5756 5756 5756 5756 5755 5755 5755 5755 5754 5754 5754 5754 5755 5756 5756 5757 5758 5759 5760 5761
5732 5734 5735 5736 5737 5741 5741 5742 5744 5745 5746 5747 5748 5748 5748 5748 5749 5749 5750 5749 5748 5748 5747 5747 5748 5748 5748 5748 5748 5748 5748 5747 5747 5747 5747 5747 5748 5749 5749 5750 5751 5752 5752 5753
5723 5725 5726 5728 5730 5730 5731 5732 5734 5735 5737 5738 5738 5739 5739 5740 5740 5741 5741 5740 5740 5739 5739 5739 5740 5740 5740 5740 5740 5740 5740 5739 5739 5739 5739 5740 5741 5741 5742 5743 5743 5744 5745 5746
5715 5716 5717 5718 5719 5721 5722 5723 5725 5726 5727 5728 5729 5729 5730 5731 5731 5731 5732 5731 5730 5731 5730 5731 5731 5731 5732 5731 5731 5731 5731 5731 5731 5732 5732 5732 5733 5734 5734 5735 5736 5736 5737 5738
5707 5708 5708 5709 5711 5712 5713 5714 5716 5717 5718 5719 5721 5721 5721 5722 5722 5722 5723 5723 5722 5722 5722 5721 5722 5722 5723 5723 5722 5722 5723 5723 5723 5724 5724 5725 5726 5726 5727 5727 5728 5728 5730 5730
5699 5699 5700 5702 5703 5704 5705 5705 5706 5708 5709 5711 5712 5712 5713 5713 5713 5713 5714 5714 5713 5713 5713 5712 5712 5713 5713 5714 5714 5714 5714 5714 5715 5716 5717 5717 5718 5718 5718 5719 5720 5720 5722 5723